EHI
0 0 0 0 0 0 0 0 0 0 0 1 5 9 9 10 15 24 28 30 31 29 28 29 32 34 33 30 27 24 22 21 21 21 21 19 16 13 10 6 4 3 4 5
0 0 0 0 0 0 0 0 0 0 0 1 4 7 8 10 16 25 29 30 29 27 27 27 28 28 28 27 25 24 24 25 24 23 22 19 16 12 9 6 4 3 3 3
0 0 0 0 0 0 0 0 0 0 0 0 1 3 6 12 20 28 31 29 25 23 22 20 19 19 20 20 20 22 23 25 25 23 21 18 14 11 8 6 4 3 3 2
0 0 0 0 0 0 0 0 0 0 0 0 0 1 4 12 23 30 30 25 20 17 15 13 13 13 13 13 15 18 20 20 20 19 17 14 11 8 7 6 4 3 2 1
0 0 0 0 0 0 0 0 0 0 0 0 0 0 2 8 17 24 24 20 16 13 11 11 11 11 10 11 13 16 17 16 15 13 11 9 7 5 5 6 5 3 1 0
0 0 0 0 0 0 0 0 0 0 0 0 0 0 0 3 7 13 15 14 11 10 11 11 11 10 10 11 13 15 16 14 11 8 7 5 4 4 4 5 4 2 0 0
0 0 0 0 0 0 0 0 0 0 0 0 0 0 0 0 3 7 9 8 6 7 8 9 9 9 8 9 11 13 13 11 6 4 4 4 3 2 3 3 2 0 0 0
0 0 0 0 0 0 0 0 0 0 0 0 0 0 0 1 4 7 6 4 4 4 5 6 6 6 6 7 8 8 8 5 2 1 2 2 1 1 1 1 0 0 0 0
0 0 0 0 0 0 0 0 0 0 0 0 0 0 1 4 6 6 5 3 3 3 3 4 3 3 3 4 5 5 3 1 0 0 1 1 0 0 0 0 0 0 0 0
0 0 0 0 0 0 0 0 0 0 0 0 0 0 1 5 7 6 3 2 2 2 2 2 1 1 1 1 2 2 1 0 0 0 0 0 0 0 0 0 0 0 0 0
0 0 0 0 0 0 0 0 0 0 0 0 0 0 1 4 5 4 2 1 1 1 1 1 0 0 0 0 0 0 0 0 0 0 0 0 0 0 0 0 0 0 0 0
0 0 0 0 0 0 0 0 0 0 0 0 0 0 1 2 3 2 0 0 0 0 0 0 0 0 0 0 0 0 0 0 0 0 0 0 0 0 0 0 0 0 0 0
0 0 0 0 0 0 0 0 0 0 0 0 0 0 0 1 1 0 0 0 0 0 0 0 0 0 0 0 0 0 0 0 0 0 0 0 0 0 0 0 0 0 0 0
0 0 0 0 0 0 0 0 0 0 0 0 0 0 0 0 0 0 0 0 0 0 0 0 0 0 0 0 0 0 0 0 0 0 0 0 0 0 0 0 0 0 0 0
0 0 0 0 0 0 0 0 0 0 0 0 0 0 0 0 0 0 0 0 0 0 0 0 0 0 0 0 0 0 0 0 0 0 0 0 0 0 0 0 0 0 0 0
0 0 0 0 0 0 0 0 0 0 0 0 0 0 1 1 0 0 0 0 0 0 0 0 0 0 0 0 0 0 0 0 0 0 0 0 0 0 0 0 0 0 0 0
0 0 0 0 0 0 0 0 0 0 0 0 0 0 1 1 0 0 0 0 0 0 0 0 0 0 0 0 0 0 0 0 0 0 0 0 0 0 0 0 0 0 0 0
0 0 0 0 0 0 0 0 0 0 0 0 0 0 1 1 0 0 0 0 0 0 0 0 0 0 0 0 0 0 0 0 0 0 0 0 0 0 0 0 0 0 0 0
0 0 0 0 0 0 0 0 0 0 0 0 0 0 0 0 0 0 0 0 0 0 0 0 0 0 0 0 0 0 0 0 0 0 0 0 0 0 0 0 0 0 0 0
0 0 0 0 0 0 0 0 0 0 0 0 0 1 0 0 0 0 0 0 0 0 0 0 0 0 0 0 0 0 0 0 0 0 0 0 0 0 0 0 0 0 0 0
0 0 0 0 0 0 0 0 0 0 0 0 0 0 0 0 0 0 0 0 0 0 0 0 0 0 0 0 0 0 0 0 0 0 0 0 0 0 0 0 0 0 0 0
0 0 0 0 0 0 0 0 0 0 0 0 0 0 0 0 0 0 0 0 0 0 0 0 0 0 0 0 0 0 0 0 0 0 0 0 0 0 0 0 0 0 0 0
0 0 0 0 0 0 0 0 0 0 0 0 0 0 0 0 0 0 0 0 0 0 0 0 0 0 0 0 0 0 0 0 0 0 0 0 0 0 0 0 0 0 0 0
0 0 0 0 0 0 0 0 0 0 0 0 0 0 0 0 0 0 0 0 0 0 0 0 0 0 0 0 0 0 0 0 0 0 0 0 0 0 0 0 0 0 0 0
0 0 0 0 0 0 0 0 0 0 0 0 0 0 0 0 0 0 0 0 0 0 0 0 0 0 0 0 0 0 0 0 0 0 0 0 0 0 0 0 0 0 0 0
0 0 0 0 0 0 0 0 0 0 0 0 0 0 0 0 0 0 0 0 0 0 0 0 0 0 0 0 0 0 0 0 0 0 0 0 0 0 0 0 0 0 0 0
Wind_Speed
1 2 5 9 8 8 6 7 8 8 4 4 5 4 1 3 7 8 7 7 8 8 8 8 8 8 7 6 5 4 3 2 2 2 3 3 2 2 2 2 1 2 2 2
3 6 14 10 9 8 8 7 6 6 3 4 5 4 3 4 4 6 8 8 8 8 8 9 9 8 7 6 5 4 4 2 3 3 3 2 3 2 2 2 3 3 3 2
7 11 8 7 9 7 6 4 3 3 4 5 5 4 4 5 7 9 8 7 8 9 8 8 8 8 7 7 5 4 4 3 2 3 3 4 4 3 3 2 3 4 4 3
7 10 9 7 7 4 4 3 2 1 3 2 3 1 2 2 6 7 7 7 8 8 9 8 9 9 8 7 6 6 6 5 4 3 4 5 5 4 3 3 3 4 4 4
7 6 5 5 5 2 4 2 2 2 3 3 4 4 2 2 3 4 5 7 8 8 8 9 9 8 7 7 6 6 6 6 6 5 4 5 5 4 4 4 5 5 4 5
9 6 3 4 4 1 2 5 6 6 6 3 2 2 2 2 3 5 6 7 7 7 8 9 9 8 8 7 7 7 6 7 7 6 5 6 7 6 6 5 5 4 3 4
7 6 3 2 3 5 5 7 5 6 5 3 1 2 2 3 3 7 9 8 7 7 8 8 8 9 8 8 7 7 7 7 7 7 7 7 7 7 7 5 5 4 4 4
2 6 4 2 2 2 1 7 6 3 3 3 2 1 1 1 6 8 8 9 8 7 7 8 8 7 7 7 7 7 7 8 8 7 7 7 7 6 5 6 5 5 4 4
3 4 5 3 1 2 1 1 6 6 2 1 1 1 1 4 7 8 8 8 7 7 7 7 7 7 7 6 7 7 7 7 7 7 7 8 7 7 7 7 6 5 4 5
4 2 5 4 6 5 3 3 5 5 3 1 2 3 5 8 8 8 7 8 7 7 7 7 6 6 6 6 6 7 7 7 6 6 6 6 7 7 7 6 7 6 6 6
3 2 4 4 2 1 3 3 4 4 4 5 3 5 4 10 11 10 8 8 8 7 6 6 6 5 5 6 6 6 7 7 6 6 7 7 7 6 7 7 7 6 6 6
1 4 0 3 3 1 2 2 4 4 2 4 3 4 1 8 9 10 10 9 9 8 7 6 6 5 5 6 6 6 6 6 6 6 7 7 7 7 7 7 6 6 7 7
3 4 3 6 7 4 1 1 3 5 4 3 4 4 2 7 8 9 10 10 9 9 8 7 6 5 5 5 5 5 5 6 6 6 6 6 6 6 6 6 6 6 7 7
3 2 5 6 7 4 3 3 2 4 3 3 5 6 7 9 10 10 10 10 9 9 8 7 5 5 4 4 4 5 5 5 5 5 6 6 6 5 5 6 6 6 7 7
4 1 1 3 4 2 3 4 3 3 5 6 6 8 12 13 12 12 11 11 11 10 8 7 6 5 4 4 4 4 4 4 5 5 6 5 5 5 5 6 6 6 6 7
3 0 2 4 4 3 5 5 4 2 3 5 5 3 5 10 10 11 12 12 11 10 9 8 7 6 5 4 4 4 4 3 4 5 4 4 4 4 5 5 5 6 6 6
1 2 2 3 6 3 4 3 1 1 3 7 7 6 12 12 13 13 13 12 11 11 10 9 7 6 5 4 4 4 3 3 4 4 3 3 4 4 4 5 5 5 5 6
3 1 1 2 3 3 6 1 3 5 2 3 7 11 13 12 9 7 9 11 11 11 10 8 7 6 5 4 4 3 3 3 3 3 4 4 4 4 4 5 5 5 4 5
7 5 2 1 1 4 4 1 3 5 2 4 11 13 12 13 9 4 5 8 9 9 8 7 6 6 5 4 4 4 4 4 4 4 4 4 5 5 4 5 4 3 4 4
3 5 4 2 1 4 6 3 3 7 2 4 11 15 16 12 7 7 8 9 9 9 8 7 6 6 5 4 4 5 5 5 4 4 4 4 4 4 4 4 3 2 3 3
2 1 3 3 3 6 5 3 1 2 7 9 11 15 14 7 6 11 13 10 10 9 8 7 7 6 5 5 6 6 5 4 3 3 4 4 4 3 3 3 2 3 3 4
2 1 2 3 3 7 4 1 3 5 5 11 10 11 9 9 14 14 13 12 11 9 8 8 7 5 4 5 6 6 4 3 3 4 3 3 2 2 3 3 3 3 4 4
2 4 3 4 6 5 2 1 1 6 9 7 8 11 14 15 14 14 12 11 10 9 8 7 8 6 5 5 5 5 3 3 4 4 4 3 4 3 3 3 4 3 3 3
3 1 2 1 2 1 3 4 5 7 8 9 13 14 14 15 15 13 12 10 9 8 8 7 8 7 5 4 4 4 3 4 5 4 3 3 4 4 4 3 3 3 3 3
5 2 1 1 1 2 4 5 7 10 11 12 12 12 13 16 15 13 11 10 9 8 7 7 7 6 6 5 5 4 4 4 4 3 3 3 4 4 4 4 3 3 1 3
5 5 5 6 6 4 4 4 9 12 12 12 13 11 11 13 14 11 10 8 8 9 7 7 7 6 6 6 5 4 4 5 4 3 2 2 3 3 3 4 4 6 4 5
Wind_Direction
264 105 239 236 216 216 247 269 281 284 297 94 137 135 63 70 99 112 113 109 103 93 87 78 77 74 73 71 73 90 104 128 139 155 158 142 134 129 106 88 101 109 97 117
354 260 241 241 247 240 244 258 280 302 348 84 108 93 49 43 89 110 116 110 103 93 78 71 67 63 61 61 62 73 85 120 151 161 161 137 122 110 88 51 47 54 68 76
231 251 258 245 252 256 261 238 242 268 7 47 91 47 28 36 64 74 80 87 88 89 83 72 66 60 56 51 47 55 57 62 84 113 113 113 101 92 86 61 41 35 47 57
252 260 272 269 259 226 266 257 179 103 61 354 79 125 318 50 63 66 72 78 79 78 75 67 60 54 47 42 41 42 48 49 48 81 112 124 119 116 105 102 77 51 41 42
276 289 293 271 255 234 227 233 94 84 93 50 23 105 289 51 80 85 83 81 77 74 75 72 64 59 48 41 45 44 48 47 40 46 75 101 99 100 94 91 88 70 46 41
263 272 246 243 268 220 119 51 32 42 63 29 303 119 279 264 189 143 114 100 86 79 74 68 62 55 46 40 47 54 54 49 46 50 58 79 94 95 95 88 85 71 54 39
310 311 306 285 355 359 58 71 29 3 14 283 303 98 266 295 152 142 132 115 97 82 73 64 59 54 44 35 36 48 59 54 45 55 60 66 78 85 84 82 80 76 61 49
301 306 311 339 161 224 230 128 152 195 222 269 357 104 273 32 102 107 110 109 99 82 74 69 62 55 47 39 37 45 55 57 49 53 60 62 70 75 73 71 73 70 65 59
209 270 302 316 310 149 106 136 165 139 142 117 266 133 179 113 117 119 118 110 103 92 82 74 64 57 49 47 44 47 59 64 58 57 64 62 62 72 75 71 68 66 61 64
175 262 305 332 32 19 121 144 76 94 134 229 234 212 206 177 171 153 143 129 117 100 86 76 66 59 54 53 54 51 56 64 64 62 69 75 66 69 74 74 68 66 61 60
123 144 322 15 39 319 9 42 93 114 150 157 221 253 221 180 174 161 151 138 129 116 102 87 75 65 60 55 56 57 58 59 59 62 69 74 70 67 70 71 68 66 61 59
72 122 319 290 281 221 144 153 138 145 210 162 171 255 297 161 156 150 144 136 128 120 110 102 94 82 67 60 59 58 62 65 62 64 70 74 73 70 70 70 64 61 60 59
24 94 60 346 337 348 1 233 156 137 129 163 171 225 115 128 134 140 138 134 130 122 117 110 100 89 82 72 67 64 65 70 69 70 72 71 72 74 74 71 65 63 64 62
48 105 160 199 231 247 267 270 178 128 152 200 201 171 166 159 150 145 140 136 131 129 125 118 107 95 89 84 81 79 75 77 80 77 77 75 71 74 73 71 68 66 67 67
65 92 257 245 250 245 258 256 236 190 188 187 203 177 185 178 164 153 146 141 139 136 131 127 120 110 101 95 90 86 80 77 84 86 85 84 80 76 76 72 69 68 68 70
30 42 2 322 293 300 291 278 253 207 156 138 140 182 160 143 140 146 151 151 148 145 140 136 132 127 120 112 104 96 89 85 90 94 94 96 92 86 82 78 72 69 66 66
351 56 35 294 306 331 294 276 229 140 146 158 179 176 143 145 156 160 159 156 153 148 145 143 140 137 132 127 123 113 109 107 99 96 94 92 97 91 85 89 78 75 73 73
181 115 132 290 351 280 257 273 108 98 73 130 123 141 150 147 139 139 151 152 150 149 147 146 142 139 137 131 128 128 125 118 111 106 101 99 100 95 86 83 81 80 78 78
176 156 153 142 268 283 289 277 148 128 89 127 131 135 128 119 103 105 140 145 146 144 144 144 142 138 133 134 138 128 119 113 110 106 101 102 106 104 97 94 94 90 90 86
133 134 141 157 197 247 254 265 138 103 143 175 146 144 145 141 150 168 155 137 131 130 134 135 131 125 125 127 120 108 103 99 101 107 108 105 101 102 103 104 105 98 107 109
38 99 165 182 218 259 265 256 140 179 217 166 158 154 158 170 163 144 140 134 133 131 131 128 125 125 128 122 111 108 109 113 116 110 105 98 102 108 105 95 92 102 102 97
202 192 192 151 202 253 305 46 193 211 135 142 150 152 142 123 121 129 135 135 135 132 131 128 125 123 122 119 115 116 120 121 101 97 95 92 96 103 105 96 89 90 103 104
218 192 184 183 216 254 313 155 144 124 125 130 139 139 133 130 134 135 137 138 137 136 134 133 130 123 118 121 123 125 135 121 106 98 91 87 78 70 87 100 101 90 95 105
287 235 132 88 283 344 44 71 74 103 118 126 134 135 136 135 138 136 139 139 137 135 136 135 131 128 129 134 135 141 142 123 111 108 99 93 88 77 67 70 85 96 104 110
262 278 125 154 200 74 62 89 101 101 106 114 122 130 136 136 139 140 142 143 141 137 136 136 136 138 143 141 137 141 137 122 115 114 102 94 96 99 84 69 63 88 95 167
229 199 182 203 196 162 165 139 123 121 123 128 127 125 133 138 139 138 140 140 139 138 136 136 137 140 142 139 142 147 142 132 127 119 115 122 122 114 108 99 61 38 56 77